Weather History for Panama City Tyndall AFB, FL

Change the Weather History Date:

Friday, May 3, 2013

  Actual Average Record
Temperature  
Mean Temperature 66 °F -  
Max Temperature 69 °F 78 °F 84 °F (2002)
Min Temperature 64 °F 62 °F 55 °F (1999)
Cooling Degree Days 2    
Growing Degree Days 16 (Base 50)    
Moisture  
Dew Point 66 °F    
Average Humidity 100    
Maximum Humidity 100    
Minimum Humidity 100    
Precipitation  
Precipitation 0.06 in - - ()
Sea Level Pressure  
Sea Level Pressure 29.83 in    
Wind  
Wind Speed 9 mph (ENE)    
Max Wind Speed 14 mph    
Max Gust Speed 23 mph    
Visibility 9 miles    
Events Rain    
Averages and records for this station are not official NWS values.
T = Trace of Precipitation, MM = Missing Value Source: NWS Daily Summary

Daily Weather History Graph

Daily Weather History Graph

Search for Another Location

Airport:

Trip Planner

Search our weather history database for the weather conditions in past years. The results will help you decide how hot, cold, wet, or windy it might be!

Date:

Astronomy

May. 03, 2013 Rise Set
Actual Time 5:57 AM CDT 7:21 PM CDT
Civil Twilight 5:31 AM CDT 7:46 PM CDT
Nautical Twilight 5:01 AM CDT 8:17 PM CDT
Astronomical Twilight 4:29 AM CDT 8:49 PM CDT
Moon 1:54 AM CDT (5/3) 1:40 PM CDT (5/3)
Length of Visible Light 14h 14m
Length of Day
13h 23m
Last Quarter, 37% of the Moon is Illuminated
May 3
Last Quarter
May 9
New
May 17
First Quarter
May 24
Full
May 31
Last Quarter

Hourly Weather History & Observations

Time (CDT) Temp. Dew Point Humidity Pressure Visibility Wind Dir Wind Speed Gust Speed Precip Events Conditions
12:58 AM 66.0 °F 66.0 °F 100% 29.90 in 10.0 mi NE 8.1 mph - N/A   Mostly Cloudy
1:58 AM 65.8 °F 65.8 °F 100% 29.87 in 10.0 mi NE 9.2 mph - N/A   Clear
2:58 AM 65.3 °F 65.3 °F 100% 29.87 in 10.0 mi Variable 6.9 mph - 0.00 in   Clear
3:58 AM 65.3 °F 65.3 °F 100% 29.85 in 10.0 mi NNE 9.2 mph - N/A   Partly Cloudy
4:13 AM 66.2 °F 66.2 °F 100% 29.84 in 10.0 mi NNE 9.2 mph - N/A   Mostly Cloudy
4:28 AM 66.2 °F 66.2 °F 100% 29.84 in 10.0 mi NNE 8.1 mph - N/A   Mostly Cloudy
4:33 AM 66.2 °F 66.2 °F 100% 29.84 in 10.0 mi NNE 8.1 mph - N/A   Mostly Cloudy
4:48 AM 66.2 °F 66.2 °F 100% 29.84 in 10.0 mi NNE 9.2 mph - N/A   Scattered Clouds
4:58 AM 65.3 °F 65.3 °F 100% 29.85 in 10.0 mi NNE 10.4 mph - 0.00 in   Light Drizzle
5:03 AM 64.4 °F 64.4 °F 100% 29.84 in 10.0 mi NNE 6.9 mph - N/A   Light Drizzle
5:08 AM 64.4 °F 64.4 °F 100% 29.84 in 10.0 mi NNE 6.9 mph - N/A   Light Drizzle
5:13 AM 64.4 °F 64.4 °F 100% 29.84 in 10.0 mi NNE 5.8 mph - N/A   Light Drizzle
5:15 AM 64.4 °F 64.4 °F 100% 29.84 in 10.0 mi Variable 5.8 mph - N/A   Light Drizzle
5:18 AM 64.4 °F 64.4 °F 100% 29.84 in 10.0 mi NNE 6.9 mph - N/A   Light Drizzle
5:43 AM 64.4 °F 64.4 °F 100% 29.84 in 10.0 mi NNE 9.2 mph - N/A   Light Drizzle
5:48 AM 64.4 °F 64.4 °F 100% 29.85 in 10.0 mi NNE 8.1 mph - N/A   Light Drizzle
5:58 AM 64.4 °F 64.4 °F 100% 29.86 in 10.0 mi NE 8.1 mph - 0.01 in   Light Drizzle
6:23 AM 64.4 °F 64.4 °F 100% 29.85 in 10.0 mi NNE 6.9 mph - N/A   Light Drizzle
6:28 AM 64.4 °F 64.4 °F 100% 29.86 in 10.0 mi NNE 9.2 mph - N/A   Light Drizzle
6:58 AM 64.4 °F 64.4 °F 100% 29.87 in 10.0 mi NNE 9.2 mph - 0.00 in   Light Drizzle
7:58 AM 64.9 °F 64.9 °F 100% 29.86 in 10.0 mi NE 10.4 mph - 0.01 in   Light Drizzle
8:58 AM 65.5 °F 65.5 °F 100% 29.86 in 10.0 mi NE 11.5 mph 20.7 mph 0.00 in   Mostly Cloudy
9:55 AM 68.0 °F 68.0 °F 100% 29.87 in 10.0 mi ENE 13.8 mph 23.0 mph N/A   Overcast
10:58 AM 68.2 °F 68.2 °F 100% 29.87 in 10.0 mi ENE 10.4 mph 17.3 mph N/A   Light Drizzle
11:18 AM 68.0 °F 68.0 °F 100% 29.86 in 10.0 mi NE 9.2 mph 17.3 mph N/A   Overcast
11:38 AM 66.2 °F 66.2 °F 100% 29.86 in 7.0 mi ENE 10.4 mph - N/A Rain Light Rain
11:58 AM 66.7 °F 66.7 °F 100% 29.87 in 10.0 mi NE 6.9 mph - 0.00 in   Light Drizzle
12:09 PM 66.2 °F 66.2 °F 100% 29.85 in 2.0 mi NE 10.4 mph - N/A Rain Light Rain
12:38 PM 66.2 °F 66.2 °F 100% 29.85 in 10.0 mi ENE 5.8 mph - N/A Rain Light Rain
12:43 PM 66.2 °F 66.2 °F 100% 29.85 in 3.0 mi ENE 6.9 mph - N/A   Light Drizzle
12:48 PM 66.2 °F 66.2 °F 100% 29.85 in 10.0 mi NE 8.1 mph - N/A   Light Drizzle
12:58 PM 66.4 °F 66.4 °F 100% 29.86 in 3.0 mi NE 9.2 mph - 0.02 in   Light Drizzle
1:23 PM 66.2 °F 66.2 °F 100% 29.84 in 3.0 mi NE 8.1 mph - N/A   Light Drizzle
1:33 PM 66.2 °F 66.2 °F 100% 29.84 in 3.0 mi NE 9.2 mph - N/A   Light Drizzle
1:48 PM 68.0 °F 68.0 °F 100% 29.83 in 10.0 mi NE 6.9 mph - N/A   Overcast
1:56 PM 68.0 °F 68.0 °F 100% 29.84 in 7.0 mi NE 8.1 mph - N/A   Mostly Cloudy
1:58 PM 68.0 °F 68.0 °F 100% 29.83 in 7.0 mi NE 9.2 mph - N/A   Mostly Cloudy
2:08 PM 68.0 °F 68.0 °F 100% 29.82 in 10.0 mi NE 8.1 mph - N/A   Overcast
2:58 PM 68.9 °F 68.9 °F 100% 29.82 in 10.0 mi NE 6.9 mph - N/A   Mostly Cloudy
3:43 PM 68.0 °F 68.0 °F 100% 29.80 in 10.0 mi ENE 11.5 mph 21.9 mph N/A   Mostly Cloudy
3:48 PM 69.8 °F 69.8 °F 100% 29.80 in 10.0 mi ENE 13.8 mph 20.7 mph N/A   Mostly Cloudy
3:53 PM 69.8 °F 69.8 °F 100% 29.80 in 10.0 mi East 10.4 mph 20.7 mph N/A   Mostly Cloudy
3:58 PM 69.4 °F 69.4 °F 100% 29.80 in 10.0 mi ENE 10.4 mph 18.4 mph N/A   Mostly Cloudy
4:28 PM 68.0 °F 68.0 °F 100% 29.80 in 10.0 mi ENE 10.4 mph 17.3 mph N/A   Mostly Cloudy
4:33 PM 68.0 °F 68.0 °F 100% 29.80 in 10.0 mi ENE 11.5 mph 17.3 mph N/A   Overcast
4:38 PM 68.0 °F 68.0 °F 100% 29.80 in 10.0 mi ENE 9.2 mph 17.3 mph N/A   Mostly Cloudy
4:43 PM 68.0 °F 68.0 °F 100% 29.80 in 10.0 mi ENE 11.5 mph 17.3 mph N/A   Overcast
4:48 PM 68.0 °F 68.0 °F 100% 29.80 in 10.0 mi ENE 11.5 mph 18.4 mph N/A   Overcast
4:53 PM 68.0 °F 68.0 °F 100% 29.80 in 10.0 mi ENE 8.1 mph 18.4 mph N/A   Overcast
4:58 PM 67.1 °F 67.1 °F 100% 29.82 in 10.0 mi ENE 8.1 mph - N/A   Overcast
5:03 PM 68.0 °F 68.0 °F 100% 29.80 in 10.0 mi ENE 10.4 mph - N/A   Mostly Cloudy
5:28 PM 66.2 °F 66.2 °F 100% 29.81 in 10.0 mi ENE 10.4 mph - N/A   Overcast
5:43 PM 66.2 °F 66.2 °F 100% 29.80 in 10.0 mi ENE 8.1 mph - N/A   Mostly Cloudy
5:48 PM 66.2 °F 66.2 °F 100% 29.80 in 10.0 mi ENE 9.2 mph - N/A   Mostly Cloudy
5:53 PM 66.2 °F 66.2 °F 100% 29.80 in 10.0 mi ENE 8.1 mph - N/A   Mostly Cloudy
5:58 PM 66.2 °F 66.2 °F 100% 29.81 in 10.0 mi ENE 8.1 mph - N/A   Mostly Cloudy
6:03 PM 66.2 °F 66.2 °F 100% 29.80 in 10.0 mi ENE 9.2 mph - N/A   Mostly Cloudy
6:13 PM 66.2 °F 66.2 °F 100% 29.81 in 10.0 mi ENE 6.9 mph - N/A   Mostly Cloudy
6:18 PM 66.2 °F 66.2 °F 100% 29.81 in 10.0 mi ENE 9.2 mph - N/A   Mostly Cloudy
6:33 PM 66.2 °F 66.2 °F 100% 29.81 in 10.0 mi ENE 8.1 mph - N/A   Mostly Cloudy
6:38 PM 66.2 °F 66.2 °F 100% 29.81 in 10.0 mi ENE 6.9 mph - N/A   Mostly Cloudy
6:58 PM 66.7 °F 66.7 °F 100% 29.82 in 10.0 mi ENE 6.9 mph - N/A   Mostly Cloudy
7:03 PM 66.2 °F 66.2 °F 100% 29.81 in 10.0 mi ENE 8.1 mph - N/A   Mostly Cloudy
7:08 PM 66.2 °F 66.2 °F 100% 29.81 in 10.0 mi ENE 6.9 mph - N/A   Mostly Cloudy
7:48 PM 66.2 °F 66.2 °F 100% 29.82 in 10.0 mi Variable 6.9 mph - N/A   Scattered Clouds
7:58 PM 66.6 °F 66.6 °F 100% 29.83 in 10.0 mi ENE 5.8 mph - N/A   Scattered Clouds
8:13 PM 66.2 °F 66.2 °F 100% 29.83 in 10.0 mi ENE 8.1 mph - N/A   Mostly Cloudy
8:33 PM 66.2 °F 66.2 °F 100% 29.84 in 10.0 mi East 10.4 mph 17.3 mph N/A   Mostly Cloudy
8:38 PM 66.2 °F 66.2 °F 100% 29.84 in 10.0 mi East 10.4 mph 17.3 mph N/A   Light Drizzle
8:48 PM 66.2 °F 66.2 °F 100% 29.84 in 10.0 mi East 11.5 mph 17.3 mph N/A   Light Drizzle
8:53 PM 66.2 °F 66.2 °F 100% 29.84 in 10.0 mi East 11.5 mph 18.4 mph N/A Rain Light Rain
8:58 PM 65.8 °F 65.8 °F 100% 29.85 in 10.0 mi East 10.4 mph 18.4 mph 0.01 in Rain Light Rain
9:03 PM 66.2 °F 66.2 °F 100% 29.85 in 10.0 mi East 10.4 mph - N/A Rain Light Rain
9:13 PM 66.2 °F 66.2 °F 100% 29.85 in 10.0 mi East 10.4 mph - N/A   Light Drizzle
9:23 PM 66.2 °F 66.2 °F 100% 29.85 in 10.0 mi East 12.7 mph - N/A   Light Drizzle
9:48 PM 66.2 °F 66.2 °F 100% 29.85 in 10.0 mi East 6.9 mph - N/A   Light Drizzle
9:58 PM 65.7 °F 65.7 °F 100% 29.86 in 10.0 mi East 8.1 mph - 0.01 in   Light Drizzle
10:03 PM 66.2 °F 66.2 °F 100% 29.85 in 10.0 mi East 6.9 mph - N/A   Light Drizzle
10:28 PM 66.2 °F 66.2 °F 100% 29.84 in 10.0 mi East 8.1 mph - N/A   Mostly Cloudy
10:58 PM 65.7 °F 65.7 °F 100% 29.85 in 10.0 mi East 8.1 mph - 0.00 in   Mostly Cloudy
11:58 PM 65.5 °F 65.5 °F 100% 29.84 in 10.0 mi East 5.8 mph - N/A   Scattered Clouds